This is the latest recevied weather packets stored in our database for station/object EUGENE. If no packets are shown the sender has not sent any weather packets the latest 10 day(s).
| Time | Temp. | Humidity | Pressure | Rain* | Wind** | Luminosity | Snow |
|---|---|---|---|---|---|---|---|
| 1777696025 | 14.44° C | 72% | 1016.3 hPa | 0 mm | - | - | - |
| 1777695126 | 14.44° C | 71% | 1016.2 hPa | 0 mm | - | - | - |
| 1777694225 | 15° C | 75% | 1016 hPa | 0 mm | - | - | - |
| 1777693326 | 16.11° C | 73% | 1015.8 hPa | 0 mm | - | - | - |
| 1777692425 | 16.67° C | 71% | 1015.4 hPa | 0 mm | - | - | - |
| 1777691525 | 17.22° C | 68% | 1015.3 hPa | 0 mm | - | - | - |
| 1777690644 | 17.22° C | 66% | 1015 hPa | 0 mm | - | - | - |
| 1777689725 | 17.78° C | 66% | 1015 hPa | 0 mm | - | - | - |
| 1777688826 | 18.33° C | 63% | 1014.7 hPa | 0 mm | - | - | - |
| 1777687925 | 19.44° C | 67% | 1014.6 hPa | 0 mm | - | - | - |
| 1777687025 | 19.44° C | 71% | 1014.4 hPa | 0 mm | - | - | - |
| 1777686125 | 20° C | 70% | 1014.4 hPa | 0 mm | - | - | - |
| 1777685225 | 20.56° C | 70% | 1014.3 hPa | 0 mm | - | - | - |
| 1777684325 | 21.11° C | 69% | 1014.2 hPa | 0 mm | - | - | - |
| 1777683425 | 21.11° C | 64% | 1014.2 hPa | 0 mm | - | - | - |
| 1777682525 | 22.78° C | 60% | 1014.1 hPa | 0 mm | - | - | - |
| 1777681626 | 22.78° C | 60% | 1014.2 hPa | 0 mm | - | - | - |
| 1777680725 | 22.78° C | 58% | 1014.3 hPa | 0 mm | - | - | - |
| 1777679825 | 22.78° C | 58% | 1014.4 hPa | 0 mm | - | - | - |
| 1777678925 | 23.33° C | 54% | 1014.4 hPa | 0 mm | - | - | - |
| 1777678025 | 22.78° C | 54% | 1014.5 hPa | 0 mm | - | - | - |
| 1777677126 | 22.22° C | 57% | 1014.7 hPa | 0 mm | - | - | - |
| 1777676225 | 22.22° C | 58% | 1015 hPa | 0 mm | - | - | - |
| 1777675325 | 22.22° C | 57% | 1015.1 hPa | 0 mm | - | - | - |
| 1777674427 | 22.22° C | 57% | 1015.3 hPa | 0 mm | - | - | - |
* Rain latest hour (hover to see other rain measurements)
** Current wind speed in m/s (hover to see current wind gust speed)